STARLINK Q (59936 NORAD) Tracking and Keplerian Element Data

This shows tracking and keplerian element data for the satellite.

Feedback or suggestion? Click here.




ElementValue
Catalog59936
NameSTARLINK Q
Epoch Orbit228
Epoch Day160.16667824
Epoch Year2024
RAAN22.4193
Inclination43.002
Eccentricity0.0002059
Argument of Perigee279.5984
Mean Anonmoly167.7018
Mean Motion15.93115471
Decay Rate-0.01028227
L11 59936U 24106Q 24160.16667824 -.01028227 32144-3 -28169-2 0 9997
L22 59936 43.0020 22.4193 0002059 279.5984 167.7018 15.93115471 2283



Live tracking and technical data element details for STARLINK Q (NORAD 59936). STARLINK Q can be tracked NOW for your location showing map with azimuth and elevation plus other details from your city location.







IsCatalogInMostPopularTable: catalog: 59936, numindb: 11
Update: records affected: 1



GetName: 59936 STARLINK Q

Hit Count: updated at: Thu, 25 Jul 2024 00:01:15 GMT